Location: Spring Creek
(38.2870°N, 100.2160°W)
Time: 07:23:52
(UTC+00:00)

CZ-2D R/B - Pass Details

Date: 08 May 2021
Orbit: 791 x 846 km, 98.7° (Epoch: 21 June)

Event Time Altitude Azimuth Distance (km) Brightness Sun altitude
Rises 06:55:17 0° 33° (NNE) 3,386 6.1 -34.4°
Reaches altitude 10° 06:58:42 10° 55° (NE) 2,436 5.0 -34.3°
Enters shadow 07:00:43 15° 77° (ENE) 2,110 4.4 -34.3°
